Hourly Data Report for October 01, 2017

All times are specified in Local Standard Time (LST). Add 1 hour to adjust for Daylight Saving Time where and when it is observed.

FORT SMITH A
NORTHWEST TERRITORIES

60°01'13.000" N
111°57'43.000" W
205.10 m
2202201
71934
YSM

Download Data

Hourly Data (October 2017)
Hourly Data Report for October 1, 2017
Temp Definition
°C
Dew Point Temp Definition
°C
Rel Hum Definition
%
Wind Dir Definition
10's deg

Wind Spd Definition
km/h
Visibility Definition
km
Stn Press Definition
kPa
Hmdx Definition


Wind Chill Definition


Weather Definition


TIME
00:00 Legend Double Dagger 10.6 9.1 90 30 13 24.1 97.66     LegendNANA
01:00 Legend Double Dagger 10.4 9.1 92 30 23 24.1 97.71     LegendNANA
02:00 Legend Double Dagger 9.5 8.5 93 28 23 24.1 97.78     Cloudy
03:00 Legend Double Dagger 8.7 8.0 95 28 20 19.3 97.84     Rain
04:00 Legend Double Dagger 7.6 7.1 96 27 17 19.3 97.94     Rain
05:00 Legend Double Dagger 7.1 6.5 96 28 22 19.3 98.00     Rain
06:00 Legend Double Dagger 6.6 6.0 96 30 22 16.1 98.08     Rain
07:00 Legend Double Dagger 6.4 5.8 96 30 21 4.8 98.20     Rain,Fog
08:00 Legend Double Dagger 5.9 5.3 96 29 22 4.8 98.34     Rain,Fog
09:00 Legend Double Dagger 5.5 5.0 97 30 23 3.2 98.43     Rain,Fog
10:00 Legend Double Dagger 5.8 5.2 96 30 23 3.2 98.52     Rain,Fog
11:00 Legend Double Dagger 6.4 5.8 96 30 25 4.0 98.62     Drizzle,Fog
12:00 Legend Double Dagger 6.7 5.7 94 31 22 3.2 98.72     Drizzle,Fog
13:00 Legend Double Dagger 6.5 5.3 92 32 26 12.9 98.84     Drizzle
14:00 Legend Double Dagger 6.2 4.5 89 32 24 16.1 98.95     Drizzle
15:00 Legend Double Dagger 5.4 3.5 88 32 26 19.3 99.07     Drizzle
16:00 Legend Double Dagger 5.7 2.5 80 32 22 24.1 99.16     Drizzle
17:00 Legend Double Dagger 5.0 2.7 85 34 21 24.1 99.29     Rain,Drizzle
18:00 Legend Double Dagger 4.8 2.8 86 33 19 24.1 99.41     Drizzle
19:00 Legend Double Dagger 4.3 3.4 94 32 20 4.8 99.54     Drizzle,Fog
20:00 Legend Double Dagger 4.2 3.3 94 33 21 19.3 99.63     Drizzle,Fog
21:00 Legend Double Dagger 3.9 2.4 90 32 18 24.1 99.71     LegendNANA
22:00 Legend Double Dagger 3.2 1.5 89 32 14 24.1 99.76     LegendNANA
23:00 Legend Double Dagger 2.6 1.1 90 31 14 24.1 99.83     Clear

Notes on Data Quality.

Legend

  • E = Estimated
  • M = Missing
  • NA = Not Available
  • ‡ = Partner data that is not subject to review by the National Climate Archives
Date modified: